Location: Melbourne
(37.8666°S, 145.1333°E)
Time: 08:34:48
(UTC+11:00)

Amateur Radio Satellites - All Passes

Search period start: 22 October 2014 08:04
Search period end: 23 October 2014 08:04
Location: Melbourne, 37.8666°S, 145.1333°E

Satellite Date Start Highest point End Downlink Frequencies (MHz)
Time Altitude Azimuth
SO-67 22 Oct 08:43:39 08:45:23 13° 272° (W) 08:47:08 435.3500 MHz FM
RS-15 22 Oct 09:06:58 09:12:33 15° 85° (E) 09:18:09 29.354 - 29.394 USB, Beacon 29.352 USB
STRAND 1 22 Oct 09:08:24 09:12:52 30° 248° (WSW) 09:17:17 ?
ISS 22 Oct 09:13:03 09:16:25 61° 142° (SE) 09:19:45 145.800 FM
HO-68 22 Oct 09:19:00 09:26:10 76° 108° (ESE) 09:33:24 435.675 MHz FM
UKube-1 22 Oct 09:20:44 09:24:10 23° 112° (ESE) 09:27:38 145.840 MHz, 145.915 MHz
KITSAT 1 22 Oct 09:53:33 10:01:11 42° 129° (SE) 10:08:45 435.175 FM
FUNcube-1 22 Oct 09:54:30 09:57:21 18° 113° (ESE) 10:00:15 145.950 - 145.970 MHz USB
SO-50 22 Oct 09:56:53 09:59:04 13° 138° (SE) 10:01:15 436.795 FM
Oscar 11 22 Oct 10:04:31 10:08:48 60° 105° (ESE) 10:13:10 145.825 FM, Beacon 2401.500 USB
ZACube-1 22 Oct 10:43:33 10:47:42 67° 105° (ESE) 10:51:58 437.345 MHz
ISS 22 Oct 10:51:14 10:52:43 12° 308° (NW) 10:54:12 145.800 FM
UKube-1 22 Oct 10:56:22 11:00:11 29° 277° (W) 11:04:03 145.840 MHz, 145.915 MHz
HO-68 22 Oct 11:09:55 11:14:30 18° 272° (W) 11:19:07 435.675 MHz FM
RS-15 22 Oct 11:10:43 11:22:42 72° 65° (ENE) 11:34:56 29.354 - 29.394 USB, Beacon 29.352 USB
FUNcube-1 22 Oct 11:29:38 11:33:27 34° 277° (W) 11:37:21 145.950 - 145.970 MHz USB
SO-50 22 Oct 11:35:42 11:40:12 79° 299° (WNW) 11:44:36 436.795 FM
UOSAT-12 22 Oct 11:39:52 11:41:54 13° 137° (SE) 11:43:55 437.025 FM, 437.400 FM
Oscar 11 22 Oct 11:44:24 11:45:21 11° 270° (W) 11:46:18 145.825 FM, Beacon 2401.500 USB
KITSAT 1 22 Oct 11:49:00 11:56:35 45° 290° (WNW) 12:04:07 435.175 FM
MaSat-1 22 Oct 12:14:01 12:15:07 12° 78° (ENE) 12:16:16 437.345 MHz
JAS-1B 22 Oct 13:13:35 13:16:21 12° 99° (E) 13:18:59 435.800 - 435.900 CW/SSB
UOSAT-12 22 Oct 13:18:08 13:22:34 81° 299° (WNW) 13:27:01 437.025 FM, 437.400 FM
RS-15 22 Oct 13:25:07 13:36:13 38° 222° (SW) 13:47:26 29.354 - 29.394 USB, Beacon 29.352 USB
Oscar 19 22 Oct 13:42:26 13:45:27 15° 89° (E) 13:48:26 437.125 CW, 437.150 USB
MaSat-1 22 Oct 13:48:26 13:50:33 20° 237° (WSW) 13:52:52 437.345 MHz
Oscar 16 22 Oct 14:26:00 14:31:01 43° 81° (E) 14:35:57 437.025 USB, Beacon 2401.1428
Uribyol 2 22 Oct 14:40:04 14:44:14 24° 85° (E) 14:48:21 436.500 FM
ITAMSAT 1 22 Oct 14:45:10 14:49:25 25° 85° (E) 14:53:37 435.822 SSB
Gurwin Techsat 1B 22 Oct 14:46:38 14:48:58 13° 90° (E) 14:51:16 435.225 FM
AO-Echo 22 Oct 14:49:10 14:53:28 33° 83° (E) 14:57:42 ?
JAS-1B 22 Oct 14:59:38 15:08:42 74° 78° (ENE) 15:16:10 435.800 - 435.900 CW/SSB
TMSAT-1 22 Oct 15:00:12 15:02:25 13° 90° (E) 15:04:37 436.925 FM
Oscar 19 22 Oct 15:19:57 15:25:09 59° 253° (WSW) 15:30:16 437.125 CW, 437.150 USB
AO-27 22 Oct 15:29:09 15:34:24 69° 78° (ENE) 15:39:35 436.795 MHz FM
RS-15 22 Oct 15:46:09 15:53:52 18° 188° (S) 16:01:30 29.354 - 29.394 USB, Beacon 29.352 USB
Sapphire 22 Oct 16:00:59 16:04:40 19° 75° (ENE) 16:08:23 437.095 MHz 1200 baud AX-25 AFSK
Oscar 16 22 Oct 16:06:02 16:10:03 22° 246° (WSW) 16:14:01 437.025 USB, Beacon 2401.1428
Uribyol 2 22 Oct 16:18:56 16:23:46 39° 250° (WSW) 16:28:34 436.500 FM
PCSat 22 Oct 16:22:36 16:27:23 33° 71° (ENE) 16:32:12 145.825 MHz
Gurwin Techsat 1B 22 Oct 16:24:03 16:29:25 71° 254° (WSW) 16:34:43 435.225 FM
ITAMSAT 1 22 Oct 16:24:10 16:28:57 37° 249° (WSW) 16:33:41 435.822 SSB
AO-Echo 22 Oct 16:28:18 16:32:03 23° 247° (WSW) 16:35:45 ?
Uosat F 22 Oct 16:32:28 16:34:46 13° 89° (E) 16:37:02 435.120 FM
TMSAT-1 22 Oct 16:37:29 16:42:50 72° 254° (WSW) 16:48:07 436.925 FM
AO-7 22 Oct 16:41:49 16:49:01 31° 83° (E) 16:56:05 29.400 - 29.500 MHz
JAS-1B 22 Oct 16:51:15 16:58:05 25° 236° (SW) 17:04:12 435.800 - 435.900 CW/SSB
OPAL 22 Oct 17:03:59 17:08:39 41° 112° (ESE) 17:13:26 ?
AO-27 22 Oct 17:10:32 17:13:17 15° 242° (WSW) 17:16:02 436.795 MHz FM
Sapphire 22 Oct 17:42:19 17:47:37 54° 239° (WSW) 17:52:58 437.095 MHz 1200 baud AX-25 AFSK
RS-15 22 Oct 18:03:10 18:12:44 25° 152° (SSE) 18:21:58 29.354 - 29.394 USB, Beacon 29.352 USB
PCSat 22 Oct 18:05:53 18:10:44 33° 234° (SW) 18:15:37 145.825 MHz
Uosat F 22 Oct 18:08:56 18:13:58 64° 254° (WSW) 18:18:55 435.120 FM
Hamsat 22 Oct 18:15:06 18:18:20 20° 87° (E) 18:21:31 145.90 MHz
JAS-2 22 Oct 18:33:36 18:38:42 45° 81° (E) 18:43:41 435.800 - 435.900 CW/SSB, 435.910 FM
AO-7 22 Oct 18:33:56 18:42:04 56° 246° (WSW) 18:50:06 29.400 - 29.500 MHz
STRAND 1 22 Oct 18:43:24 18:48:04 36° 111° (ESE) 18:52:46 ?
OPAL 22 Oct 18:43:54 18:47:40 21° 276° (W) 18:51:31 ?
Oscar 10/S400 22 Oct 19:46:57 03:10:30 59° 66° (ENE) 05:23:12 145.825 - 145.975 CW/USB, Beacon 145.810 USB
Hamsat 22 Oct 19:50:21 19:54:20 33° 251° (WSW) 19:58:14 145.90 MHz
SO-67 22 Oct 20:06:45 20:10:09 45° 81° (E) 20:13:30 435.3500 MHz FM
AO-40 22 Oct 20:07:05 23:34:31 27° 51° (NE) 01:15:39 Beacon 2401.320
RS-15 22 Oct 20:15:47 20:27:54 72° 124° (ESE) 20:39:20 29.354 - 29.394 USB, Beacon 29.352 USB
JAS-2 22 Oct 20:19:45 20:23:27 19° 244° (WSW) 20:27:04 435.800 - 435.900 CW/SSB, 435.910 FM
STRAND 1 22 Oct 20:23:08 20:27:18 25° 275° (W) 20:31:29 ?
AO-7 22 Oct 20:30:42 20:32:59 11° 226° (SW) 20:35:15 29.400 - 29.500 MHz
Saudisat 1A 22 Oct 20:50:08 20:54:33 79° 61° (ENE) 20:59:00 436.775 MHz
HO-68 22 Oct 20:51:18 20:54:58 15° 90° (E) 20:58:37 435.675 MHz FM
PANSAT 22 Oct 21:42:56 21:45:27 16° 11° (N) 21:47:58 not established
Oscar 11 22 Oct 21:55:49 21:57:52 13° 89° (E) 21:59:54 145.825 FM, Beacon 2401.500 USB
MaSat-1 22 Oct 21:58:26 22:02:13 30° 120° (ESE) 22:06:10 437.345 MHz
RS-15 22 Oct 22:29:36 22:39:12 30° 283° (WNW) 22:48:28 29.354 - 29.394 USB, Beacon 29.352 USB
Saudisat 1A 22 Oct 22:32:31 22:34:40 13° 223° (SW) 22:36:49 436.775 MHz
ZACube-1 22 Oct 22:35:29 22:38:21 16° 87° (E) 22:41:13 437.345 MHz
HO-68 22 Oct 22:36:13 22:43:28 88° 253° (WSW) 22:50:38 435.675 MHz FM
UKube-1 22 Oct 22:45:42 22:50:01 52° 80° (E) 22:54:16 145.840 MHz, 145.915 MHz
FUNcube-1 22 Oct 23:19:41 23:24:09 49° 81° (E) 23:28:37 145.950 - 145.970 MHz USB
PANSAT 22 Oct 23:22:05 23:25:01 20° 358° (N) 23:27:57 not established
Oscar 11 22 Oct 23:30:00 23:34:19 51° 254° (WSW) 23:38:34 145.825 FM, Beacon 2401.500 USB
MaSat-1 22 Oct 23:34:17 23:37:52 25° 287° (WNW) 23:41:33 437.345 MHz
JAS-1B 22 Oct 23:55:16 23:59:32 14° 132° (SE) 00:03:52 435.800 - 435.900 CW/SSB
ZACube-1 23 Oct 00:10:33 00:14:54 44° 253° (WSW) 00:19:17 437.345 MHz
KITSAT 1 23 Oct 00:20:19 00:27:21 34° 73° (ENE) 00:34:25 435.175 FM
UKube-1 23 Oct 00:23:31 00:25:44 14° 244° (WSW) 00:27:55 145.840 MHz, 145.915 MHz
HO-68 23 Oct 00:26:01 00:30:09 17° 236° (SW) 00:34:16 435.675 MHz FM
Sapphire 23 Oct 00:50:35 00:53:08 13° 137° (SE) 00:55:40 437.095 MHz 1200 baud AX-25 AFSK
FUNcube-1 23 Oct 00:57:24 01:00:05 16° 246° (WSW) 01:02:47 145.950 - 145.970 MHz USB
Oscar 19 23 Oct 00:57:32 01:01:10 20° 116° (ESE) 01:04:50 437.125 CW, 437.150 USB
PANSAT 23 Oct 01:02:35 01:04:34 14° 345° (NNW) 01:06:33 not established
AO-27 23 Oct 01:11:12 01:12:01 10° 121° (ESE) 01:12:50 436.795 MHz FM
PCSat 23 Oct 01:12:25 01:16:28 21° 131° (SE) 01:20:29 145.825 MHz
JAS-1B 23 Oct 01:38:49 01:47:46 57° 112° (ESE) 01:57:27 435.800 - 435.900 CW/SSB
Oscar 16 23 Oct 01:41:07 01:46:07 52° 108° (ESE) 01:51:11 437.025 USB, Beacon 2401.1428
SO-50 23 Oct 01:48:21 01:53:02 53° 63° (ENE) 01:57:40 436.795 FM
ISS 23 Oct 01:53:46 01:57:03 53° 44° (NE) 02:00:22 145.800 FM
Uribyol 2 23 Oct 01:56:11 02:00:40 30° 112° (ESE) 02:05:11 436.500 FM
AO-Echo 23 Oct 01:59:57 02:04:44 38° 109° (ESE) 02:09:26 ?
ITAMSAT 1 23 Oct 02:01:23 02:05:57 32° 112° (ESE) 02:10:33 435.822 SSB
Gurwin Techsat 1B 23 Oct 02:05:33 02:09:10 19° 116° (ESE) 02:12:47 435.225 FM
KITSAT 1 23 Oct 02:14:35 02:22:25 52° 235° (SW) 02:30:20 435.175 FM
TMSAT-1 23 Oct 02:18:46 02:22:18 18° 116° (ESE) 02:25:50 436.925 FM
Sapphire 23 Oct 02:31:56 02:37:24 82° 117° (ESE) 02:42:49 437.095 MHz 1200 baud AX-25 AFSK
Oscar 19 23 Oct 02:35:07 02:40:06 49° 280° (W) 02:45:10 437.125 CW, 437.150 USB
AO-27 23 Oct 02:45:27 02:50:40 86° 104° (ESE) 02:55:57 436.795 MHz FM
PCSat 23 Oct 02:54:55 03:00:16 58° 293° (WNW) 03:05:33 145.825 MHz
Oscar 16 23 Oct 03:22:24 03:25:44 17° 272° (W) 03:29:07 437.025 USB, Beacon 2401.1428
UOSAT-12 23 Oct 03:27:42 03:31:57 45° 64° (ENE) 03:36:12 437.025 FM, 437.400 FM
JAS-1B 23 Oct 03:30:15 03:38:27 37° 273° (W) 03:47:23 435.800 - 435.900 CW/SSB
SO-50 23 Oct 03:30:22 03:33:52 20° 227° (SW) 03:37:21 436.795 FM
ISS 23 Oct 03:31:20 03:33:57 21° 207° (SSW) 03:36:36 145.800 FM
Uribyol 2 23 Oct 03:35:32 03:40:03 30° 276° (W) 03:44:37 436.500 FM
AO-7 23 Oct 03:38:48 03:46:16 38° 119° (ESE) 03:53:46 29.400 - 29.500 MHz
AO-Echo 23 Oct 03:39:28 03:43:33 23° 275° (W) 03:47:35 ?
ITAMSAT 1 23 Oct 03:40:55 03:45:23 29° 276° (W) 03:49:54 435.822 SSB
Gurwin Techsat 1B 23 Oct 03:43:27 03:48:39 54° 280° (W) 03:53:56 435.225 FM
Uosat F 23 Oct 03:43:54 03:47:01 17° 117° (ESE) 03:50:10 435.120 FM
TMSAT-1 23 Oct 03:56:31 04:01:43 55° 280° (W) 04:07:00 436.925 FM
KITSAT 1 23 Oct 04:16:01 04:19:59 14° 210° (SSW) 04:23:58 435.175 FM
Sapphire 23 Oct 04:18:23 04:20:02 11° 282° (WNW) 04:21:41 437.095 MHz 1200 baud AX-25 AFSK
JAS-2 23 Oct 04:44:14 04:49:16 21° 116° (ESE) 04:53:56 435.800 - 435.900 CW/SSB, 435.910 FM
Hamsat 23 Oct 05:08:11 05:09:57 12° 116° (ESE) 05:11:44 145.90 MHz
UOSAT-12 23 Oct 05:09:01 05:12:17 20° 227° (SW) 05:15:32 437.025 FM, 437.400 FM
OPAL 23 Oct 05:17:37 05:19:49 13° 87° (E) 05:22:00 ?
Saudisat 1A 23 Oct 05:18:40 05:22:48 37° 127° (SE) 05:26:53 436.775 MHz
Uosat F 23 Oct 05:20:21 05:25:18 56° 281° (W) 05:30:19 435.120 FM
AO-7 23 Oct 05:30:46 05:38:46 48° 281° (W) 05:46:52 29.400 - 29.500 MHz
JAS-2 23 Oct 06:26:31 06:33:50 69° 282° (WNW) 06:40:24 435.800 - 435.900 CW/SSB, 435.910 FM
SO-67 23 Oct 06:39:23 06:40:51 12° 113° (ESE) 06:42:21 435.3500 MHz FM
Hamsat 23 Oct 06:41:05 06:45:20 58° 280° (W) 06:49:42 145.90 MHz
ISS 23 Oct 06:49:01 06:49:47 11° 166° (SSE) 06:50:33 145.800 FM
OPAL 23 Oct 06:53:53 06:59:09 73° 252° (WSW) 07:04:22 ?
STRAND 1 23 Oct 06:57:23 06:59:56 14° 89° (E) 07:02:29 ?
Saudisat 1A 23 Oct 06:58:49 07:02:07 21° 291° (WNW) 07:05:23 436.775 MHz
HO-68 23 Oct 07:22:39 07:23:09 10° 129° (SE) 07:23:39 435.675 MHz FM
